Ketchikan, AK

5:36 PM AKST on December 12, 2018 (GMT -0900)
Ketchikan International

Weather History for PAKT - October, 2018

Change the Weather History Date:

Tuesday, October 2, 2018

  Actual Average Record
Temperature  
Mean Temperature 45 °F -  
Max Temperature 55 °F 56 °F 67 °F (1987)
Min Temperature 35 °F 43 °F 30 °F (2000)
Degree Days  
Heating Degree Days 20    
Moisture  
Dew Point 25 °F    
Average Humidity 51    
Maximum Humidity 76    
Minimum Humidity 22    
Precipitation  
Precipitation 0.00 in - - ()
Sea Level Pressure  
Sea Level Pressure 30.10 in    
Wind  
Wind Speed 4 mph (NW)    
Max Wind Speed 12 mph    
Max Gust Speed -    
Visibility 10 miles    
Events      
Averages and records for this station are not official NWS values.
T = Trace of Precipitation, MM = Missing Value Source: NWS Daily Summary

Daily Weather History Graph

Daily Weather History Graph

Search for Another Location

Airport or City:

Astronomy

Oct. 02, 2018 Rise Set
Actual Time 6:51 AM AKDT 6:19 PM AKDT
Civil Twilight 6:15 AM AKDT 6:55 PM AKDT
Nautical Twilight 5:32 AM AKDT 7:38 PM AKDT
Astronomical Twilight 4:48 AM AKDT 8:21 PM AKDT
Moon 11:21 PM AKDT (10/2) 3:27 PM AKDT (10/2)
Length of Visible Light 12h 40m
Length of Day
11h 27m
Last Quarter, 45% of the Moon is Illuminated
Oct 2
Last Quarter
Oct 8
New
Oct 16
First Quarter
Oct 24
Full
Oct 31
Last Quarter

Hourly Weather History & Observations

Time (AKDT) Temp. Windchill Dew Point Humidity Pressure Visibility Wind Dir Wind Speed Gust Speed Precip Events Conditions
12:53 AM 39.0 °F - 27.0 °F 62% 30.14 in 10.0 mi Calm Calm - N/A   Clear
1:53 AM 42.1 °F 39.2 °F 25.0 °F 51% 30.15 in 10.0 mi WNW 4.6 mph - N/A   Clear
2:53 AM 42.1 °F 40.2 °F 28.0 °F 58% 30.16 in 10.0 mi WNW 3.5 mph - N/A   Clear
3:53 AM 39.9 °F 36.7 °F 30.9 °F 70% 30.17 in 10.0 mi West 4.6 mph - N/A   Clear
4:53 AM 37.9 °F - 28.0 °F 68% 30.17 in 10.0 mi Calm Calm - N/A   Clear
5:53 AM 37.9 °F 35.5 °F 28.0 °F 68% 30.17 in 10.0 mi WNW 3.5 mph - N/A   Clear
6:10 AM 35.1 °F - 26.1 °F 70% 30.17 in 10.0 mi Calm Calm - N/A   Clear
6:53 AM 37.4 °F 34.9 °F 24.8 °F 60% 30.18 in 10.0 mi NNW 3.5 mph - N/A   Clear
7:53 AM 42.8 °F - 28.4 °F 57% 30.17 in 10.0 mi Calm Calm - N/A   Clear
8:53 AM 48.2 °F - 21.2 °F 34% 30.16 in 10.0 mi WNW 6.9 mph - N/A   Clear
9:53 AM 52.0 °F - 19.0 °F 27% 30.15 in 10.0 mi NNW 5.8 mph - N/A   Clear
10:53 AM 51.8 °F - 17.6 °F 26% 30.13 in 10.0 mi WNW 6.9 mph - N/A   Clear
11:53 AM 54.0 °F - 15.1 °F 22% 30.12 in 10.0 mi NNW 8.1 mph - N/A   Clear
12:53 PM 55.4 °F - 23.0 °F 29% 30.11 in 10.0 mi NNW 10.4 mph - N/A   Clear
1:53 PM 55.4 °F - 23.0 °F 29% 30.08 in 10.0 mi NNW 9.2 mph - N/A   Clear
2:53 PM 55.4 °F - 21.2 °F 26% 30.06 in 10.0 mi NNW 9.2 mph - N/A   Clear
3:53 PM 53.6 °F - 28.4 °F 38% 30.05 in 10.0 mi NNW 11.5 mph - N/A   Clear
4:53 PM 53.6 °F - 24.8 °F 33% 30.05 in 10.0 mi NNW 9.2 mph - N/A   Clear
5:53 PM 46.9 °F - 25.0 °F 42% 30.04 in 10.0 mi NW 4.6 mph - N/A   Clear
6:53 PM 39.9 °F - 27.0 °F 60% 30.02 in 10.0 mi Calm Calm - N/A   Clear
7:53 PM 37.9 °F - 27.0 °F 65% 30.01 in 10.0 mi Calm Calm - N/A   Clear
8:53 PM 39.0 °F - 28.9 °F 67% 30.00 in 10.0 mi Calm Calm - N/A   Clear
9:53 PM 36.0 °F - 28.9 °F 76% 30.01 in 10.0 mi Calm Calm - N/A   Clear
10:53 PM 39.0 °F 34.8 °F 30.0 °F 70% 30.00 in 10.0 mi WNW 5.8 mph - N/A   Clear
11:53 PM 39.0 °F - 28.9 °F 67% 29.99 in 10.0 mi Calm Calm - N/A   Clear